Location: Góry Miechowskie
(50.3599°N, 20.1803°E)
Time: 22:05:49
(UTC+00:00)

Courier 1B - Pass Details

Date: 18 September 2024
Orbit: 962 x 1208 km, 28.3° (Epoch: 13 October)

Event Time Altitude Azimuth Distance (km) Brightness Sun altitude
Rises 14:17:03 0° 234° (SW) 3,908 12.1 22.2°
Reaches altitude 10° 14:22:14 10° 204° (SSW) 3,015 11.0 21.4°
Maximum altitude 14:24:23 11° 187° (S) 2,934 10.5 21.1°
Drops below altitude 10° 14:26:33 10° 170° (S) 3,061 10.3 20.8°
Sets 14:31:58 0° 139° (SE) 4,069 10.6 20.0°
